Weather History for Portland Troutdale, OR

Change the Weather History Date:

Friday, January 25, 2013

  Actual Average Record
Temperature  
Mean Temperature 41 °F 41 °F  
Max Temperature 44 °F 47 °F 61 °F (1984)
Min Temperature 38 °F 35 °F 10 °F (1950)
Degree Days  
Heating Degree Days 24 24  
Month to date heating degree days 710 638  
Cooling Degree Days 0 0  
Month to date cooling degree days 0 0  
Moisture  
Dew Point 37 °F    
Average Humidity 89    
Maximum Humidity 92    
Minimum Humidity 85    
Precipitation  
Precipitation 0.16 in 0.18 in 2.00 in (1982)
Month to date precipitation 1.39 5.16  
Year to date precipitation 1.39 5.16  
Snow  
Snow 0.00 in - - ()
Month to date snowfall 0.0  
Snow Depth 0.00 in    
Sea Level Pressure  
Sea Level Pressure 30.05 in    
Wind  
Wind Speed 8 mph (East)    
Max Wind Speed 17 mph    
Max Gust Speed 23 mph    
Visibility 6 miles    
Events Rain    
T = Trace of Precipitation, MM = Missing Value Source: NWS Daily Summary

Daily Weather History Graph

Daily Weather History Graph

Search for Another Location

Airport:

Trip Planner

Search our weather history database for the weather conditions in past years. The results will help you decide how hot, cold, wet, or windy it might be!

Date:

Astronomy

Jan. 25, 2013 Rise Set
Actual Time 7:37 AM PST 5:06 PM PST
Civil Twilight 7:05 AM PST 5:38 PM PST
Nautical Twilight 6:29 AM PST 6:14 PM PST
Astronomical Twilight 5:54 AM PST 6:49 PM PST
Moon 4:09 PM PST (1/25) 6:21 AM PST (1/25)
Length of Visible Light 10h 33m
Length of Day
9h 28m
Waxing Gibbous, 98% of the Moon is Illuminated
Jan 25
Waxing Gibbous
Jan 26
Full
Feb 3
Last Quarter
Feb 9
New
Feb 17
First Quarter

Hourly Weather History & Observations

Time (PST) Temp. Windchill Dew Point Humidity Pressure Visibility Wind Dir Wind Speed Gust Speed Precip Events Conditions
12:01 AM 39.2 °F 30.8 °F 35.6 °F 87% 30.15 in 2.5 mi East 15.0 mph - 0.00 in Rain Light Rain
12:16 AM 39.2 °F 30.5 °F 35.6 °F 87% 30.15 in 3.0 mi East 16.1 mph 21.9 mph 0.00 in Rain Light Rain
12:53 AM 39.0 °F 30.3 °F 36.0 °F 89% 30.14 in 4.0 mi East 16.1 mph 21.9 mph 0.01 in   Overcast
1:53 AM 39.0 °F 30.6 °F 36.0 °F 89% 30.13 in 4.0 mi East 15.0 mph 21.9 mph 0.02 in Rain Light Rain
2:53 AM 39.0 °F 31.8 °F 36.0 °F 89% 30.12 in 8.0 mi East 11.5 mph 17.3 mph 0.01 in Rain Light Rain
3:48 AM 37.4 °F 28.9 °F 35.6 °F 93% 30.10 in 2.5 mi East 13.8 mph - 0.02 in Rain Light Rain
3:53 AM 37.9 °F 30.0 °F 36.0 °F 93% 30.10 in 2.5 mi East 12.7 mph - 0.02 in Rain Light Rain
4:16 AM 37.4 °F 31.4 °F 35.6 °F 93% 30.10 in 3.0 mi East 8.1 mph 17.3 mph 0.00 in Rain Light Rain
4:42 AM 37.4 °F 30.3 °F 35.6 °F 93% 30.10 in 2.0 mi East 10.4 mph - 0.02 in Rain Light Rain
4:53 AM 39.0 °F 32.3 °F 36.0 °F 89% 30.10 in 3.0 mi East 10.4 mph - 0.02 in Rain Light Rain
5:53 AM 37.9 °F 31.5 °F 36.0 °F 93% 30.09 in 3.0 mi East 9.2 mph - 0.03 in Rain Light Rain
6:53 AM 37.9 °F 30.9 °F 36.0 °F 93% 30.09 in 4.0 mi East 10.4 mph - 0.01 in Rain Light Rain
7:53 AM 39.0 °F 33.4 °F 36.0 °F 89% 30.09 in 10.0 mi East 8.1 mph - 0.00 in   Overcast
8:06 AM 39.2 °F 35.0 °F 35.6 °F 87% 30.08 in 2.0 mi ENE 5.8 mph - N/A   Overcast
8:53 AM 39.0 °F 33.4 °F 36.0 °F 89% 30.08 in 2.0 mi East 8.1 mph - 0.00 in Rain Light Rain
8:56 AM 39.2 °F 33.6 °F 35.6 °F 87% 30.08 in 2.0 mi East 8.1 mph - N/A   Overcast
9:49 AM 39.2 °F 34.2 °F 37.4 °F 93% 30.07 in 3.0 mi East 6.9 mph - N/A   Overcast
9:53 AM 39.0 °F 34.8 °F 37.0 °F 93% 30.07 in 3.0 mi East 5.8 mph - N/A   Overcast
10:13 AM 39.2 °F 33.0 °F 37.4 °F 93% 30.07 in 6.0 mi East 9.2 mph - 0.00 in Rain Light Rain
10:28 AM 39.2 °F 35.0 °F 37.4 °F 93% 30.07 in 4.0 mi East 5.8 mph - 0.00 in Rain Light Rain
10:43 AM 39.2 °F 35.0 °F 37.4 °F 93% 30.07 in 2.5 mi ENE 5.8 mph - 0.01 in Rain Light Rain
10:53 AM 39.0 °F 34.0 °F 37.0 °F 93% 30.07 in 2.0 mi ENE 6.9 mph - 0.02 in Rain Light Rain
11:53 AM 39.9 °F 33.9 °F 37.0 °F 89% 30.05 in 2.0 mi East 9.2 mph - 0.01 in   Overcast
12:53 PM 39.9 °F 36.7 °F 37.9 °F 93% 30.03 in 1.2 mi ENE 4.6 mph - 0.01 in Rain Light Rain
1:00 PM 39.2 °F 35.0 °F 37.4 °F 93% 30.03 in 1.2 mi East 5.8 mph - 0.00 in Rain Light Rain
1:12 PM 39.2 °F 37.0 °F 37.4 °F 93% 30.03 in 3.0 mi ENE 3.5 mph - 0.00 in Rain Light Rain
1:21 PM 41.0 °F 38.0 °F 39.2 °F 93% 30.02 in 6.0 mi ENE 4.6 mph - 0.00 in   Overcast
1:53 PM 42.1 °F 39.2 °F 39.9 °F 92% 30.01 in 10.0 mi ENE 4.6 mph - 0.00 in   Overcast
2:53 PM 42.1 °F 37.7 °F 39.0 °F 89% 30.00 in 10.0 mi East 6.9 mph - N/A   Overcast
3:13 PM 42.8 °F 38.6 °F 39.2 °F 87% 29.99 in 10.0 mi East 6.9 mph - N/A   Overcast
3:53 PM 43.0 °F 41.3 °F 39.0 °F 86% 29.99 in 10.0 mi ENE 3.5 mph - N/A   Mostly Cloudy
4:53 PM 41.0 °F 37.1 °F 37.9 °F 89% 29.99 in 10.0 mi East 5.8 mph - N/A   Overcast
5:53 PM 39.9 °F 37.8 °F 37.0 °F 89% 29.99 in 10.0 mi East 3.5 mph - N/A   Clear
6:53 PM 37.9 °F - 36.0 °F 93% 29.98 in 10.0 mi Calm Calm - N/A   Clear
7:04 PM 39.2 °F 35.9 °F 35.6 °F 87% 29.98 in 10.0 mi ENE 4.6 mph - N/A   Scattered Clouds
7:15 PM 39.2 °F 35.9 °F 35.6 °F 87% 29.98 in 10.0 mi NE 4.6 mph - N/A   Mostly Cloudy
7:53 PM 39.9 °F 33.4 °F 37.0 °F 89% 29.97 in 10.0 mi East 10.4 mph - N/A   Overcast
8:53 PM 39.9 °F 35.1 °F 37.0 °F 89% 29.97 in 10.0 mi East 6.9 mph - N/A   Overcast
9:53 PM 41.0 °F 36.4 °F 37.0 °F 86% 29.98 in 10.0 mi East 6.9 mph - N/A   Overcast
10:53 PM 39.9 °F 35.8 °F 37.0 °F 89% 29.98 in 10.0 mi East 5.8 mph - N/A   Overcast
11:53 PM 39.9 °F 37.8 °F 37.0 °F 89% 29.98 in 10.0 mi ENE 3.5 mph - N/A   Overcast